Volver al catálogo

FENGYUN 1C DEB

ActivoSSO
NORAD 30224·DEBRIS·🇨🇳 China

Lanzado May 10, 1999 desde Taiyuan Satellite Launch Center

Loading…

Próximos Pases (próximas 24 horas)

TLE

ActualizadoSource: Space-Track

Época: Sep 14, 2026, 08:48 UTC

1 30224U 99025WH  26257.36695868  .00000183  00000-0  17744-3 0  9997
2 30224  99.4513 305.9018 0110560 325.2617  94.7933 13.90069831995704

Sigue FENGYUN 1C DEB en tiempo real con AllMySat

Download on the App Store